Regional Weather Roundup
Issued by NWS Cleveland, OH

Home | Current Version | Previous Version | Graphics & Text | Print | Product List | Glossary On
Versions: 1 2 3 4 5 6 7 8 9 10 11 12 13 14 15 16 17 18 19 20 21 22 23 24 25 26 27 28 29 30 31 32 33 34 35 36 37 38 39 40 41 42 43 44 45 46 47 48 49 50
000
ASUS41 KCLE 281900
RWRCLE
OHIO REGIONAL WEATHER ROUNDUP
NATIONAL WEATHER SERVICE WILMINGTON, OH
300 PM EDT THU MAY 28 2015

NOTE: "FAIR" INDICATES FEW OR NO CLOUDS BELOW 12,000 FEET WITH NO
SIGNIFICANT WEATHER AND/OR OBSTRUCTIONS TO VISIBILITY.

OHZ001>008-015>018-024>027-034-035-043-044-282000-
   NORTHWEST OHIO

CITY           SKY/WX    TMP DP  RH WIND       PRES   REMARKS
DEFIANCE       SUNNY     78  58  49 E12       30.22F
FINDLAY        SUNNY     80  53  39 E12       30.21F
TOLEDO EXPRESS SUNNY     77  53  43 E8        30.23
TOLEDO EXEC    SUNNY     77  54  44 E8        30.25F
LIMA           PTSUNNY   78  59  51 E10       30.21F
$$

OHZ009>014-019>023-028>033-038-089-282000-
   NORTHEAST OHIO

CITY           SKY/WX    TMP DP  RH WIND       PRES   REMARKS
CLE-HOPKINS    SUNNY     76  57  51 NE9       30.27F
CLE-LAKEFRONT  SUNNY     67  57  70 NE10      30.26F
CUY CO. ARPT   NOT AVBL
LORAIN-ELYRIA  SUNNY     79  58  48 CALM      30.25F
ASHTABULA      SUNNY     77  55  46 VRB3      30.28F
AKRON-CANTON   MOSUNNY   78  56  46 E10       30.26F
WOOSTER        NOT AVBL
MANSFIELD      SUNNY     77  57  50 E9        30.25F
YOUNGSTOWN     MOSUNNY   76  54  46 VRB3      30.27F
$$

OHZ042-051>053-060>062-070>072-077>081-282000-
  SOUTHWEST OHIO

CITY           SKY/WX    TMP DP  RH WIND       PRES   REMARKS
CINC-COVINGTON MOSUNNY   79  65  62 VRB6      30.20F
CINC-LUNKEN    PTSUNNY   80  67  64 SW8       30.19F
HAMILTON       SUNNY     82  65  56 VRB5      30.19F
DAYTON         NOT AVBL
WRIGHT-PAT AFB NOT AVBL
DAYTON GENERAL CLOUDY    79  63  57 CALM      30.19F
WILMINGTON     MOSUNNY   80  62  54 SE8       30.19F
$$

OHZ036-037-039>041-045>050-054>059-063>069-073>076-082>088-282000-
  CENTRAL AND SOUTHEAST OHIO

CITY           SKY/WX    TMP DP  RH WIND       PRES   REMARKS
COLUMBUS       PTSUNNY   81  61  50 CALM      30.21F
OSU AIRPORT    CLOUDY    81  62  52 NE8       30.21F
BOLTON FIELD   MOSUNNY   81  63  54 SE7       30.22F
RICKENBACK AFB NOT AVBL
NEWARK         CLOUDY    79  61  53 NE7       30.22F
MARION         MOSUNNY   77  58  51 E7        30.23F
LANCASTER      MOSUNNY   79  62  56 E5        30.22F
ZANESVILLE     PTSUNNY   79  58  48 VRB3      30.23F
NEW PHILLY     FAIR      81  60  48 SE7       30.25F
$$


USA.gov is the U.S. government's official web portal to all federal, state and local government web resources and services.